Regional Weather Roundup
Issued by NWS Midland/Odessa, TX

Skip options and go directly to product.
Home | Oldest Version | Previous Version | Current Version | All | Text Only | Save Text | Print | Product List | Glossary On

Skip product version selection by date and time.   
175
ASUS44 KMAF 311210
RWRMAF
MIDLAND AREA WEATHER ROUNDUP
NATIONAL WEATHER SERVICE MIDLAND TX
700 AM CDT TUE MAY 31 2016

...IN SOUTHWEST TEXAS AND SOUTHEAST NEW MEXICO...

CITY           SKY/WX    TMP DP  RH WIND       PRES   REMARKS
ALPINE         CLOUDY    57  56  95 SW6       30.07R
ANDREWS        FAIR      63  62  98 SW5       29.94R
ARTESIA        MOCLDY    59  59 100 NE3       29.94S
BIG SPRING     PTCLDY    60  59  97 SW3       29.94R
CARLSBAD       CLOUDY    61  58  90 NW10      29.91R
DRYDEN           N/A     67  64  90 E10       29.81F
FORT STOCKTON  NOT AVBL
GUAD PASS      NOT AVBL
HOBBS          CLEAR     57  57 100 S6        29.96R
MARFA          HVY RAIN  59  54  83 W17G35    30.11R
MIDLAND AIRPK  CLEAR     65  62  88 CALM      29.93S
MIDLAND INTL   CLEAR     64  61  90 CALM      29.92S
ODESSA         PTCLDY    65  61  87 SW3       29.93S
PECOS          CLOUDY    67  55  65 W16       29.97R
PRESIDIO       PTSUNNY   67  59  75 CALM      29.95S
SEMINOLE       CLEAR     58  57  94 SW5       29.95R
SNYDER           N/A     62  61  96 SW3       29.92R
WINK           MOCLDY    62  54  74 S7        29.93R
$$
...OTHER STATIONS IN TEXAS...

CITY           SKY/WX    TMP DP  RH WIND       PRES   REMARKS
ABILENE        CLOUDY    70  65  84 S5        29.89R
AMARILLO       CLOUDY    61  52  72 NE20G25   29.99R
AUSTIN         CLOUDY    75  74  96 S7        29.89S
BROWNSVILLE    CLOUDY    78  76  93 SE7       29.87R
CORPUS CHRISTI MOCLDY    76  74  93 S3        29.88R
DALLAS FTW     CLOUDY    74  70  87 S6        29.86S
DEL RIO        CLOUDY    70  67  90 CALM      29.85R
EL PASO        CLOUDY    65  54  67 S9        29.94S
HOUSTON INT    MOCLDY    69  69 100 CALM      29.90S
LUBBOCK        CLOUDY    62  54  74 SW9       29.90R
SAN ANGELO     CLOUDY    67  65  93 CALM      29.88R
SAN ANTONIO    CLOUDY    76  72  87 SE9       29.90R
WACO           CLOUDY    75  71  87 S10       29.89S
WICHITA FALLS  NOT AVBL
$$
...OTHER LOCATIONS IN NEW MEXICO...

CITY           SKY/WX    TMP DP  RH WIND       PRES   REMARKS
ALAMAGORDO     CLOUDY    59  46  63 S7        29.99R
ALBUQUERQUE    CLOUDY    63  39  41 E3        30.01S
CANNON AFB     PTCLDY    58  54  88 S3        29.96F
CLOVIS         CLEAR     55  48  76 NW3       29.96S
HOLLOMAN AFB   CLOUDY    62  50  66 S10       29.97R
ROSWELL        PTCLDY    58  51  78 S6        29.92F
RUIDOSO          N/A     48  39  71 CALM      30.11S
SANTA FE       PTCLDY    50  27  40 N7        30.07R
TRUTH OR CONSE CLEAR     59  48  67 S5        29.99R
TUCUMCARI      CLEAR     56  49  77 N7        29.96R
$$

USA.gov is the U.S. government's official web portal to all federal, state and local government web resources and services.